Terminal Aerodrome Forecast
Issued by NWS

Home | Current Version | Previous Version | Text Only | Print | Product List | Glossary On
Versions: 1 2 3 4 5 6 7 8 9 10 11 12 13 14 15 16 17 18 19 20 21 22 23 24
000
FTUS45 KGJT 201120
TAFRIL
TAF
KRIL 201120Z 2012/2112 VRB03KT P6SM SKC
     FM201900 31007KT P6SM FEW110
     FM210200 12004KT P6SM FEW110 SCT250
     FM210600 27007KT P6SM SCT110 BKN200=

USA.gov is the U.S. government's official web portal to all federal, state and local government web resources and services.